Flag for Cuba Weather past 2 weeks in Holguín, Cuba

72 °F

Passing clouds.

Feels Like: 71 °F
Forecast: 72 / 80 °F
Wind: 9 mph from Northeast

Location: Holguin Civ / Mil

Current Time: Nov 26, 2015 at 10:05:18 PM

Latest Report: Nov 26, 2015 at 8:51 PM

Visibility: N/A

Pressure: 30.04 "Hg

Humidity: 83%

Dew point: 66 °F

Location of HolguínLocation

Historic Weather in Holguín — Graph


Holguín temperature yesterday

Maximum temperature yesterday: 81 °F (at 10:52 AM)
Minimum temperature yesterday: 72 °F (at 1:52 AM)
Average temperature yesterday: 76 °F

Past Weeks' High & Low Weather Summary

High91 °F (Nov 12, 12:50 PM)94% (Nov 11, 9:50 PM)30.07 "Hg (Nov 11, 9:50 PM)
Low66 °F (Nov 22, 4:50 AM)41% (Nov 22, 1:50 PM)29.83 "Hg (Nov 20, 2:50 PM)
Average78 °F78%29.95 "Hg
* Reported Nov 11 8:50 PM — Nov 26 8:51 PM, Holguín, Weather by CustomWeather, © 2015

Note: Actual official high and low records may vary slightly from our data, if they occured in-between our weather recording intervals... More about our weather records


Holguín weather history for previous 24 hours

Time TempWeatherWind HumidityBarometerVisibility
8:51 PM
Thu, Nov 26
72 °FPassing clouds.9 mph83%30.04 "HgN/A
7:51 PM70 °FPartly cloudy.5 mph94%30.04 "HgN/A
6:51 PM72 °FPartly cloudy.5 mph88%30.04 "HgN/A
5:52 PM72 °FLight rain. Partly cloudy.6 mph83%30.01 "Hg6 mi
4:51 PM72 °FLight rain. Broken clouds.15 mph83%30.01 "Hg6 mi
3:51 PM72 °FLight rain. Partly sunny.20 mph88%30.01 "Hg4 mi
2:54 PM73 °FLight rain. Broken clouds.8 mph83%29.98 "Hg5 mi
1:52 PM75 °FLight rain. Partly sunny.12 mph78%30.01 "Hg4 mi
12:51 PM77 °FLight rain. Partly sunny.14 mph79%30.01 "Hg4 mi
11:52 AM82 °FPartly sunny.13 mph66%30.04 "Hg6 mi
10:51 AM75 °FLight rain. Partly sunny.2 mph89%30.07 "Hg4 mi
9:52 AM75 °FScattered showers. Broken clouds.7 mph83%N/A5 mi
8:52 AM75 °FPartly sunny.10 mph83%30.07 "Hg6 mi
7:53 AM73 °FPartly sunny.8 mph89%30.04 "Hg6 mi
6:51 AM70 °FFog.1 mph94%30.01 "Hg5 mi
5:50 AM72 °FFog.5 mph88%30.01 "Hg5 mi
4:51 AM72 °FFog.6 mph88%29.98 "Hg5 mi
3:51 AM72 °FPassing clouds.6 mph83%29.98 "Hg6 mi
2:50 AM72 °FPassing clouds.5 mph83%29.98 "Hg6 mi
1:50 AM72 °FPassing clouds.6 mph88%30.01 "Hg6 mi
12:50 AM73 °FMild.3 mph83%30.01 "HgN/A
11:51 PM
Wed, Nov 25
73 °FPassing clouds.7 mph83%30.04 "Hg6 mi
10:50 PM73 °FFog.7 mph83%30.04 "Hg5 mi
Weather by CustomWeather, © 2015

See weather overviewHow to use our weather pages